DECAYED

STARLINK-4273, 53181 (Decayed)

Orbit data source: Space-Track

STARLINK-4273, 53181 was a payload satellite owned by SpaceX/Seattle (US) in LEO that was launched on Sun, 17 Jul 2022 UTC via an FALCON 9 launch vehicle from the Air Force Eastern Test Range (AFETR). Payload-class satellites include a variety of spacecraft equipped with specific instruments for various scientific and technological missions. These include communications satellites like Starlink; space stations such as the ISS; scientific satellites like the Hubble; Earth observation satellites from companies like Planet Labs, Umbra, and HawkEye 360; GPS; miniature CubeSats for education and research; and military/defense satellites.

Not visible in the next 10 days
Identifier
53181, 2022-083BB
Orbit
Decayed
Country
Flag of USUS
Related business
Manufacturer
SpaceX/Seattle
Mission
Decayed Commercial Communications
Bus & Motor
STARLINK, Unknown motor
Mass
297 kg wet, ~275 kg dry
Launch date (UTC)
2022-07-17 (4 years ago)
Launch vehicle
FALCON 9
Launch site
Air Force Eastern Test Range (AFETR)
Object type
Payload
Rocket body
Debris
Shape & HBR
Box + 1 Pan, 10.1 m
Radar Cross Section
13.562 m², Large (>1 m²)

Expand to show TLE details & history
Last TLE update: 1 year ago

TLE from 1 year ago
0 STARLINK-4273
1 53181U 22083BB  25137.04363631  .11320368  12234-4  16292-2 0  9999
2 53181  53.1515 310.7611 0013341 284.5173 173.7768 16.33655993158677
Epoch: 2025-05-17T01:02Z
TLE epoch observation values (Epoch: 2025-05-17T01:02:50.177Z)
Latitude
52.51329°
Longitude
163.76647°
Altitude
197.777 km
Speed
7.789 km/s
True Right ascension
03h 37m 51s
True Declination
52° 19' 58"
Sunlit
Object was in daylight at epoch
Visualization orbit readout
Latitude
Unknown
Longitude
Unknown
Altitude
Unknown
Speed
Unknown
Apparent Right ascension
Unknown
Apparent Declination
Unknown
Sunlit
N/A
Visualization observer readout
Local Sidereal Time
23:08:51
Azimuth
Unknown
Elevation
Unknown
Doppler factor
Unknown
Orbital elements
Apogee altitude
191.755 km
Perigee altitude
174.249 km
Semi-major axis
6,561.139 km
Eccentricity
0.00133
Inclination
53.1515°
RAAN
310.7611°
Arg. of periapsis
284.5173°
True anomaly
173.79334°
Mean anomaly
173.7768°
Eccentric anomaly
173.78508°
Mean motion
4.08389 °/min
Orbital period
88.15 mins
BSTAR
0.0016292
Loading maneuver chart data...
Computing Atmospheric mass density...
Loading historical data...
Loading historical data...
Loading historical data...
Loading historical data...
Loading historical data...
Loading historical data...
Loading historical data...

Documentation

Showing up to 5 results
|